9TS3 weather

Simaron Ranch Airport
Waller, Texas, United States

Public forecast

Using degrees Fahrenheit for public forecast. Weather courtesy of forecast.io.

METAR (pilot weather report)

Closest report is Houston Executive Airport, 20.8 nm (38.5 km) S. Retrieved 2019/07/18 18:35 UTC (2 minutes ago):

KTME 181835Z AUTO 20012G17KT 160V220 9SM FEW046 35/23 A3002 RMK AO2

TAF (pilot weather forecast)

Forecast is more than 12 hours old.

Closest forecast is David Wayne Hooks Memorial Airport, 22.1 nm (41.0 km) ESE. Retrieved 2017/02/07 12:51 UTC (2 years ago):

TAF KDWH 071148Z 0712/0812 20009G15KT P6SM SCT022 OVC030 TEMPO 0712/0715 BKN018 FM071500 23010KT P6SM BKN015 FM071900 25010KT P6SM SCT025 FM080100 22005KT P6SM SCT250 TEMPO 0807/0809 3SM BR BKN013 FM080900 VRB03KT 2SM BR OVC008